STARLINK-4541 (53427 NORAD) Tracking and Keplerian Element Data

This shows tracking and keplerian element data for the satellite.

Feedback or suggestion? Click here.




ElementValue
Catalog53427
NameSTARLINK-4541
Epoch Orbit1632
Epoch Day325.15231349
Epoch Year2022
RAAN121.4977
Inclination53.2216
Eccentricity0.0002016
Argument of Perigee48.7104
Mean Anonmoly311.4062
Mean Motion15.0884123
Decay Rate2E-07
L11 53427U 22097AR 22325.15231349 .00000020 00000+0 19363-4 0 9990
L22 53427 53.2216 121.4977 0002016 48.7104 311.4062 15.08841230 16327



Live tracking and technical data element details for STARLINK-4541 (NORAD 53427). STARLINK-4541 can be tracked NOW for your location showing map with azimuth and elevation plus other details from your city location.







IsCatalogInMostPopularTable: catalog: 53427, numindb: 6
Update: records affected: 1



GetName: 53427 STARLINK-4541

Hit Count: updated at: Thu, 08 Dec 2022 20:31:25 GMT